Voltar ao catálogo

THORAD AGENA D DEB

AtivoSSO
NORAD 19391·DEBRIS·🇺🇸 United States

Lançado Apr 8, 1970 de Vandenberg Space Force Base

Loading…

Próximas Passagens (próximas 24 horas)

TLE

AtualizadoSource: Space-Track

Época: Sep 14, 2026, 08:41 UTC

1 19391U 70025PZ  26257.36205176  .00001090  00000-0  68839-3 0  9996
2 19391  98.7110 108.1581 0143986  48.0498 125.8948 14.01104182931573

Acompanhe THORAD AGENA D DEB em tempo real com AllMySat

Download on the App Store